Location: Blanot
(47.1713°N, 4.2340°E)
Time: 08:51:01
(UTC+00:00)

Cosmos 1782 Rocket - Pass Details

Date: 14 July 2020
Orbit: 606 x 633 km, 82.5° (Epoch: 14 August)

Event Time Altitude Azimuth Distance (km) Brightness Sun altitude
Exits shadow 02:53:01 - 175° (S) 2,717 6.5 -9.7°
Reaches altitude 10° 02:54:48 10° 171° (S) 2,002 5.8 -9.5°
Maximum altitude 02:59:08 55° 95° (E) 759 4.3 -9.0°
Drops below altitude 10° 03:03:28 10° 18° (NNE) 2,003 7.3 -8.5°
Sets 03:05:43 0° 14° (NNE) 2,910 8.1 -8.2°
